| time (UTC) | temp C | wind direction | speed KPH | gust KPH | rain 1hr cm | rain 24hr cm | rain mn cm | humidity % | barometer mb |
| 20260507075011 | 13 | 321 | 0.0 | 0.0 | 0.00 | 0.00 | 0.00 | 76 | 1020.5 |
| 20260507074010 | 13 | 318 | 1.6 | 0.0 | 0.00 | 0.00 | 0.00 | 77 | 1020.5 |
| 20260507073009 | 13 | 330 | 0.0 | 0.0 | 0.00 | 0.00 | 0.00 | 76 | 1020.5 |
| 20260507072008 | 13 | 317 | 0.0 | 0.0 | 0.00 | 0.00 | 0.00 | 76 | 1020.4 |
| 20260507071007 | 13 | 327 | 0.0 | 0.0 | 0.00 | 0.00 | 0.00 | 76 | 1020.3 |
| 20260507070010 | 13 | 313 | 0.0 | 0.0 | 0.00 | 0.00 | 0.00 | 76 | 1020.3 |
| 20260507065005 | 13 | 327 | 0.0 | 0.0 | 0.00 | 0.00 | 0.00 | 76 | 1020.3 |
| 20260507064004 | 13 | 316 | 0.0 | 0.0 | 0.00 | 0.00 | 0.00 | 75 | 1020.4 |
| 20260507063003 | 13 | 327 | 3.2 | 0.0 | 0.00 | 0.00 | 0.00 | 75 | 1020.4 |
| 20260507062002 | 13 | 323 | 6.4 | 0.0 | 0.00 | 0.00 | 0.00 | 75 | 1020.5 |
| 20260507061001 | 13 | 317 | 0.0 | 0.0 | 0.00 | 0.00 | 0.00 | 76 | 1020.4 |
| 20260507055959 | 13 | 316 | 1.6 | 0.0 | 0.00 | 0.00 | 0.00 | 76 | 1020.4 |
| 20260507054959 | 13 | 309 | 0.0 | 0.0 | 0.00 | 0.00 | 0.00 | 76 | 1020.4 |
| 20260507053957 | 13 | 360 | 0.0 | 0.0 | 0.00 | 0.00 | 0.00 | 76 | 1020.4 |
| 20260507052956 | 13 | 348 | 0.0 | 0.0 | 0.00 | 0.00 | 0.00 | 76 | 1020.3 |
| 20260507051955 | 13 | 313 | 0.0 | 0.0 | 0.00 | 0.00 | 0.00 | 75 | 1020.3 |
| 20260507050955 | 14 | 327 | 0.0 | 0.0 | 0.00 | 0.00 | 0.00 | 75 | 1020.4 |
| 20260507045953 | 14 | 314 | 0.0 | 0.0 | 0.00 | 0.00 | 0.00 | 74 | 1020.3 |
| 20260507044953 | 14 | 315 | 0.0 | 0.0 | 0.00 | 0.00 | 0.00 | 74 | 1020.3 |
| 20260507043951 | 15 | 317 | 0.0 | 0.0 | 0.00 | 0.00 | 0.00 | 74 | 1020.4 |
| 20260507042951 | 15 | 319 | 0.0 | 0.0 | 0.00 | 0.00 | 0.00 | 74 | 1020.3 |
| 20260507041950 | 15 | 325 | 9.7 | 0.0 | 0.00 | 0.00 | 0.00 | 73 | 1020.2 |
| 20260507040949 | 15 | 320 | 0.0 | 0.0 | 0.00 | 0.00 | 0.00 | 73 | 1020.1 |
| 20260507035947 | 15 | 316 | 0.0 | 0.0 | 0.00 | 0.00 | 0.00 | 73 | 1020.0 |
| 20260507034947 | 15 | 309 | 1.6 | 0.0 | 0.00 | 0.00 | 0.00 | 73 | 1019.8 |
| 20260507033946 | 15 | 318 | 0.0 | 0.0 | 0.00 | 0.00 | 0.00 | 72 | 1019.6 |
| 20260507032945 | 16 | 324 | 0.0 | 0.0 | 0.00 | 0.00 | 0.00 | 72 | 1019.6 |
| 20260507031943 | 16 | 331 | 0.0 | 0.0 | 0.00 | 0.00 | 0.00 | 72 | 1019.4 |
| 20260507024941 | 16 | 333 | 3.2 | 0.0 | 0.00 | 0.00 | 0.00 | 72 | 1019.1 |
| 20260507023940 | 16 | 321 | 0.0 | 0.0 | 0.00 | 0.00 | 0.00 | 72 | 1018.9 |
| 20260507022938 | 16 | 313 | 3.2 | 0.0 | 0.00 | 0.00 | 0.00 | 72 | 1018.9 |
| 20260507021937 | 17 | 327 | 14.5 | 0.0 | 0.00 | 0.00 | 0.00 | 71 | 1018.9 |
| 20260507020937 | 17 | 314 | 6.4 | 0.0 | 0.00 | 0.00 | 0.00 | 70 | 1018.9 |
| 20260507015935 | 17 | 310 | 3.2 | 0.0 | 0.00 | 0.00 | 0.00 | 69 | 1018.9 |
| 20260507014934 | 17 | 316 | 11.3 | 0.0 | 0.00 | 0.00 | 0.00 | 69 | 1019.0 |
| 20260507013933 | 17 | 335 | 0.0 | 0.0 | 0.00 | 0.00 | 0.00 | 68 | 1019.0 |
| 20260507012933 | 18 | 309 | 4.8 | 0.0 | 0.00 | 0.00 | 0.00 | 67 | 1019.0 |
| 20260507011931 | 18 | 323 | 4.8 | 0.0 | 0.00 | 0.00 | 0.00 | 66 | 1019.0 |
| 20260507010930 | 19 | 341 | 1.6 | 0.0 | 0.00 | 0.00 | 0.00 | 65 | 1018.9 |
| 20260507003927 | 20 | 305 | 11.3 | 0.0 | 0.00 | 0.00 | 0.00 | 62 | 1018.8 |
| 20260507002926 | 20 | 312 | 9.7 | 0.0 | 0.00 | 0.00 | 0.00 | 63 | 1018.8 |
| 20260507001925 | 20 | 321 | 0.0 | 0.0 | 0.00 | 0.00 | 0.00 | 65 | 1018.7 |
| 20260507000924 | 21 | 320 | 9.7 | 0.0 | 0.00 | 0.00 | 0.00 | 65 | 1018.6 |
| 20260506234922 | 21 | 319 | 0.0 | 0.0 | 0.00 | 0.00 | 0.00 | 65 | 1018.6 |
| 20260506233921 | 21 | 317 | 0.0 | 0.0 | 0.00 | 0.00 | 0.00 | 63 | 1018.5 |
| 20260506232920 | 21 | 317 | 0.0 | 0.0 | 0.00 | 0.00 | 0.00 | 60 | 1018.5 |
| 20260506230918 | 22 | 323 | 0.0 | 0.0 | 0.00 | 0.00 | 0.00 | 60 | 1018.7 |
| 20260506225917 | 22 | 83 | 0.0 | 0.0 | 0.00 | 0.00 | 0.00 | 61 | 1018.7 |
| 20260506224916 | 22 | 83 | 0.0 | 0.0 | 0.00 | 0.00 | 0.00 | 60 | 1018.9 |
| 20260506223915 | 22 | 307 | 0.0 | 0.0 | 0.00 | 0.00 | 0.00 | 60 | 1019.0 |
| 20260506222914 | 21 | 71 | 0.0 | 0.0 | 0.00 | 0.00 | 0.00 | 63 | 1019.1 |
| 20260506221913 | 21 | 223 | 0.0 | 0.0 | 0.00 | 0.00 | 0.00 | 63 | 1019.2 |
| 20260506215911 | 21 | 257 | 0.0 | 0.0 | 0.00 | 0.00 | 0.00 | 62 | 1019.3 |
| 20260506214910 | 21 | 255 | 0.0 | 0.0 | 0.00 | 0.00 | 0.00 | 62 | 1019.2 |
| 20260506213909 | 21 | 244 | 0.0 | 0.0 | 0.00 | 0.00 | 0.00 | 65 | 1019.1 |
| 20260506212908 | 20 | 192 | 3.2 | 0.0 | 0.00 | 0.00 | 0.00 | 69 | 1019.3 |
| 20260506211907 | 20 | 198 | 0.0 | 0.0 | 0.00 | 0.00 | 0.00 | 69 | 1019.5 |
| 20260506205905 | 19 | 198 | 0.0 | 0.0 | 0.00 | 0.00 | 0.00 | 69 | 1019.7 |
| 20260506204904 | 19 | 198 | 0.0 | 0.0 | 0.00 | 0.00 | 0.00 | 70 | 1019.6 |
| 20260506203903 | 18 | 198 | 0.0 | 0.0 | 0.00 | 0.00 | 0.00 | 72 | 1019.6 |
| 20260506202902 | 18 | 198 | 0.0 | 0.0 | 0.00 | 0.00 | 0.00 | 72 | 1019.6 |
| 20260506201901 | 18 | 198 | 0.0 | 0.0 | 0.00 | 0.00 | 0.00 | 72 | 1019.6 |
| 20260506200900 | 18 | 198 | 0.0 | 0.0 | 0.00 | 0.00 | 0.00 | 74 | 1019.7 |
| 20260506195858 | 17 | 278 | 0.0 | 0.0 | 0.00 | 0.00 | 0.00 | 75 | 1019.7 |
| 20260506194858 | 17 | 277 | 0.0 | 0.0 | 0.00 | 0.00 | 0.00 | 77 | 1019.9 |
| 20260506193857 | 17 | 268 | 4.8 | 0.0 | 0.00 | 0.00 | 0.00 | 76 | 1020.0 |
| 20260506192856 | 17 | 266 | 0.0 | 0.0 | 0.00 | 0.00 | 0.00 | 76 | 1020.1 |
| 20260506191855 | 17 | 271 | 0.0 | 0.0 | 0.00 | 0.00 | 0.00 | 77 | 1020.0 |
| 20260506190854 | 17 | 271 | 0.0 | 0.0 | 0.00 | 0.00 | 0.00 | 77 | 1019.9 |
| 20260506185852 | 16 | 271 | 0.0 | 0.0 | 0.00 | 0.00 | 0.00 | 77 | 1020.0 |
| 20260506184851 | 16 | 271 | 0.0 | 0.0 | 0.00 | 0.00 | 0.00 | 78 | 1019.9 |
| 20260506183850 | 16 | 292 | 0.0 | 0.0 | 0.00 | 0.00 | 0.00 | 79 | 1019.9 |
| 20260506182850 | 16 | 292 | 0.0 | 0.0 | 0.00 | 0.00 | 0.00 | 79 | 1019.9 |
| 20260506181849 | 16 | 345 | 0.0 | 0.0 | 0.00 | 0.00 | 0.00 | 80 | 1020.0 |
| 20260506180847 | 16 | 345 | 0.0 | 0.0 | 0.00 | 0.00 | 0.00 | 81 | 1019.9 |
| 20260506174845 | 15 | 345 | 0.0 | 0.0 | 0.00 | 0.00 | 0.00 | 81 | 1020.0 |
| 20260506173844 | 15 | 345 | 0.0 | 0.0 | 0.00 | 0.00 | 0.00 | 80 | 1020.0 |
| 20260506172843 | 15 | 345 | 0.0 | 0.0 | 0.00 | 0.00 | 0.00 | 81 | 1019.8 |
| 20260506171843 | 15 | 345 | 0.0 | 0.0 | 0.00 | 0.00 | 0.00 | 81 | 1019.7 |
| 20260506170841 | 15 | 345 | 0.0 | 0.0 | 0.00 | 0.00 | 0.00 | 80 | 1019.7 |
| 20260506165840 | 15 | 345 | 0.0 | 0.0 | 0.00 | 0.00 | 0.00 | 80 | 1019.8 |
| 20260506164839 | 15 | 130 | 0.0 | 0.0 | 0.00 | 0.00 | 0.00 | 81 | 1019.8 |
| 20260506163839 | 15 | 130 | 0.0 | 0.0 | 0.00 | 0.00 | 0.00 | 81 | 1019.8 |
| 20260506161837 | 14 | 132 | 0.0 | 0.0 | 0.00 | 0.00 | 0.00 | 83 | 1019.6 |
| 20260506160836 | 14 | 133 | 0.0 | 0.0 | 0.00 | 0.00 | 0.00 | 83 | 1019.6 |
| 20260506154833 | 14 | 132 | 0.0 | 0.0 | 0.00 | 0.00 | 0.00 | 84 | 1019.3 |
| 20260506153832 | 13 | 133 | 0.0 | 0.0 | 0.00 | 0.00 | 0.00 | 84 | 1019.0 |
| 20260506152831 | 13 | 321 | 0.0 | 0.0 | 0.00 | 0.00 | 0.00 | 84 | 1019.6 |
| 20260506151831 | 13 | 321 | 0.0 | 0.0 | 0.00 | 0.00 | 0.00 | 84 | 1019.8 |
| 20260506150829 | 13 | 321 | 0.0 | 0.0 | 0.00 | 0.00 | 0.00 | 84 | 1019.8 |
| 20260506144827 | 13 | 318 | 0.0 | 0.0 | 0.00 | 0.00 | 0.00 | 84 | 1019.5 |
| 20260506142825 | 13 | 323 | 0.0 | 0.0 | 0.00 | 0.00 | 0.00 | 85 | 1019.3 |
| 20260506141824 | 13 | 323 | 0.0 | 0.0 | 0.00 | 0.00 | 0.00 | 85 | 1019.0 |
| 20260506140823 | 13 | 324 | 0.0 | 0.0 | 0.00 | 0.00 | 0.00 | 85 | 1018.7 |
| 20260506135822 | 13 | 323 | 0.0 | 0.0 | 0.00 | 0.00 | 0.00 | 85 | 1018.9 |
| 20260506134821 | 13 | 323 | 0.0 | 0.0 | 0.00 | 0.00 | 0.00 | 85 | 1018.7 |
| 20260506133820 | 13 | 323 | 0.0 | 0.0 | 0.00 | 0.00 | 0.00 | 85 | 1018.6 |
| 20260506132819 | 13 | 323 | 0.0 | 0.0 | 0.00 | 0.00 | 0.00 | 86 | 1018.7 |
| 20260506131818 | 13 | 323 | 0.0 | 0.0 | 0.00 | 0.00 | 0.00 | 85 | 1018.5 |
| 20260506130817 | 13 | 323 | 0.0 | 0.0 | 0.00 | 0.00 | 0.00 | 85 | 1018.3 |
| 20260506124815 | 13 | 323 | 0.0 | 0.0 | 0.00 | 0.00 | 0.00 | 85 | 1018.2 |
| 20260506123814 | 13 | 323 | 0.0 | 0.0 | 0.00 | 0.00 | 0.00 | 85 | 1018.1 |
| 20260506122813 | 13 | 323 | 0.0 | 0.0 | 0.00 | 0.00 | 0.00 | 84 | 1018.2 |
| 20260506121812 | 13 | 324 | 0.0 | 0.0 | 0.00 | 0.00 | 0.00 | 84 | 1018.3 |
| 20260506120811 | 13 | 324 | 0.0 | 0.0 | 0.00 | 0.00 | 0.00 | 84 | 1018.2 |
| 20260506114809 | 13 | 323 | 6.4 | 0.0 | 0.00 | 0.00 | 0.00 | 84 | 1018.0 |
| 20260506113808 | 13 | 315 | 0.0 | 0.0 | 0.00 | 0.00 | 0.00 | 83 | 1017.9 |
| 20260506111806 | 13 | 323 | 0.0 | 0.0 | 0.00 | 0.00 | 0.00 | 83 | 1017.8 |
| 20260506110805 | 14 | 319 | 0.0 | 0.0 | 0.00 | 0.00 | 0.00 | 82 | 1017.6 |
| 20260506105804 | 14 | 316 | 3.2 | 0.0 | 0.00 | 0.00 | 0.00 | 82 | 1017.5 |
| 20260506103802 | 14 | 313 | 0.0 | 0.0 | 0.00 | 0.00 | 0.00 | 81 | 1017.2 |
| 20260506102801 | 14 | 323 | 0.0 | 0.0 | 0.00 | 0.00 | 0.00 | 82 | 1017.2 |
| 20260506100759 | 14 | 324 | 0.0 | 0.0 | 0.00 | 0.00 | 0.00 | 81 | 1016.9 |
| 20260506095758 | 14 | 324 | 0.0 | 0.0 | 0.00 | 0.00 | 0.00 | 81 | 1016.9 |
| 20260506094757 | 14 | 326 | 0.0 | 0.0 | 0.00 | 0.00 | 0.00 | 81 | 1016.8 |
| 20260506093756 | 14 | 326 | 0.0 | 0.0 | 0.00 | 0.00 | 0.00 | 81 | 1016.8 |
| 20260506091754 | 15 | 322 | 0.0 | 0.0 | 0.00 | 0.00 | 0.00 | 80 | 1016.7 |
| 20260506090753 | 15 | 322 | 0.0 | 0.0 | 0.00 | 0.00 | 0.00 | 80 | 1016.6 |
| 20260506085752 | 15 | 323 | 0.0 | 0.0 | 0.00 | 0.00 | 0.00 | 80 | 1016.6 |
| 20260506084751 | 15 | 323 | 0.0 | 0.0 | 0.00 | 0.00 | 0.00 | 80 | 1016.6 |
| 20260506083750 | 15 | 321 | 0.0 | 0.0 | 0.00 | 0.00 | 0.00 | 80 | 1016.6 |
| 20260506080747 | 15 | 323 | 0.0 | 0.0 | 0.00 | 0.00 | 0.00 | 80 | 1016.5 |